Puerto Barrios Airport
MGPB : now visible

Airfield :











YOU CAN JOIN US ON...

 
LOGIN :

Register | Disclaimer

   EN    FR    IT 

 









Legend :    VFR   Marginal VFR   IFR   Intensive IFR   Very Intensive IFR
Visi :
Ceiling :
>= 8 km
>= 3000ft
5 to 8 km
1000 to 3000 ft
1500m to 5 km
500 to 1000 ft
800 to 1500m
200 to 500 ft
< 800m
< 200 ft
Symbols :   Thunderstorms  Fog  Heavy snow  Heavy precipitations  Wind > 20 kt






- Airport Elevation : 33 ft
- IATA code : PBR


MGPB - Puerto Barrios

CURRENT METAR :
  • 011500Z 27004KT 9999 SCT018 28/25 Q1013 A2991

EXPIRED METARs :
  • 011400Z 27004KT 9999 BKN018 26/24 Q1013 A2991
  • 011300Z 00000KT 8000 BKN016 24/23 Q1012 A2988 BR

TAF TAF MGPB
Valid from the 01 at 12:00 until the 02 at 12:00 UTC


011100Z 0112/0212 00000KT 9999 BKN016 TX32/0120Z TN22/0112Z
BECMG 0114/0116 36006KT SCT018
PROB30
TEMPO 0118/0124 8000 RA BKN016
BECMG 0200/0202 00000KT SCT016 BKN080
BECMG 0208/0210 FEW014



MET'MAP, your aeronautical weather chart ! - Copyright ORBIFLY December 2007 - Disclaimer

ORBIFLY MET'MAP TEAM :

Programming & Development : Alexandra Zaïnal
Concept & original design : Baudouin d'Aumeries
Assistance for programming : Marc-Olivier Méhu
Technical & hardware support : Manuel Goepfert

Contact : metmap@orbifly.com




SOURCES & CREDITS :

   NOAA       Earth
Advisory